Regional Weather Roundup
Issued by NWS

Home | Current Version | Previous Version | Graphics & Text | Print | Product List | Glossary On
Versions: 1 2 3 4 5 6 7 8 9 10 11 12 13 14 15 16 17 18 19 20 21 22 23 24 25 26 27 28 29 30 31 32 33 34 35 36 37 38 39 40 41 42 43 44 45 46 47 48 49 50
000
ASUS45 KBOU 211207
RWRCO

WEATHER ROUNDUP FOR COLORADO
NATIONAL WEATHER SERVICE DENVER/BOULDER CO
600 AM MDT SAT OCT 21 2017

NOTE: "FAIR" INDICATES FEW OR NO CLOUDS BELOW 12000 FEET WITH NO
SIGNIFICANT WEATHER AND/OR OBSTRUCTIONS TO VISIBILITY.

COZ001>005-013-030-031-211300-
...NORTHWEST COLORADO...

CITY           SKY/WX    TMP DP  RH WIND       PRES   REMARKS
CRAIG          NOT AVBL
HAYDEN         MOCLDY    23  20  88 SW6       30.05R WCI  16
MEEKER         FAIR      29  28  96 CALM      30.06R
RABBIT EARS PA FOG       18  14  86 W13G29    29.94R VSB 1/2 WCI   4
STEAMBOAT SPGS CLOUDY    26  24  91 CALM      30.02R
WALDEN         NOT AVBL
$$

COZ006>008-011-211300-
...WEST CENTRAL VALLEYS...

CITY           SKY/WX    TMP DP  RH WIND       PRES   REMARKS
GRAND JUNCTION FAIR      35  16  45 N5        30.04R WCI  31
MONTROSE       MOCLDY    39  13  34 NW9       30.06R
EAGLE          CLOUDY    32  30  92 E3        30.04R
RIFLE          FAIR      37  27  67 W10       30.05R
DELTA          FAIR      43  22  42 NW13      30.03R
NUCLA          FAIR      39  12  33 NW10      30.07R
$$

COZ017>023-064>068-211300-
...SOUTHWEST COLORADO...

CITY           SKY/WX    TMP DP  RH WIND       PRES   REMARKS
DURANGO        FAIR      44  26  49 W13       29.95R
CORTEZ         FAIR      41  13  31 VRB3      30.02R
PAGOSA SPRINGS FAIR      43  28  55 W7        29.96R
TELLURIDE      NOT AVBL
WOLF CREEK PAS FAIR      23  23 100 SW15G22   30.07S WCI  10
$$

COZ009-010-012-014-032>034-037-058>063-211300-
...CENTRAL COLORADO...

CITY           SKY/WX    TMP DP  RH WIND       PRES   REMARKS
ASPEN          CLOUDY    30  28  92 N3        29.98R
BUENA VISTA    FAIR      35  17  48 NW12G25   29.91R WCI  27
COPPER MTN     FAIR      19  12  73 MISG      29.93R
BERTHOUD PASS  CLOUDY     9   0  66 MISG      29.81R
COTTONWOOD PAS FAIR      32  19  59 W15G32    29.92R WCI  22
GUNNISON       FAIR      34  21  59 SW12      29.98R WCI  25
KREMMLING      FAIR      32  23  69 W3        30.01R
LEADVILLE      CLOUDY    22  13  68 VRB3      29.95R
MONARCH PASS   CLOUDY    19  18  93 W37G49    30.01R WCI  -1
SALIDA         FAIR      41  25  54 SW15G23   29.98R
SUNLIGHT       CLOUDY    18  14  86 MISG      30.06R
WILKERSON PASS FAIR      23   7  50 W18G30    29.89R WCI   9
$$

COZ069>075-211300-
...SAN LUIS VALLEY/SANGRE DE CRISTO MOUNTAINS...

CITY           SKY/WX    TMP DP  RH WIND       PRES   REMARKS
ALAMOSA        MOCLDY    39  30  70 NE12      29.92R
DEL NORTE      FAIR      42  25  50 W12G23    29.91R
LA VETA PASS   FAIR      32  27  80 MISG      30.03S
SAGUACHE       FAIR      36  27  69 NW23G29   29.95R
$$

COZ035-036-038>040-211300-
...NORTHERN COLORADO FRONT RANGE...

CITY           SKY/WX    TMP DP  RH WIND       PRES   REMARKS
DENVER INTL AP CLOUDY    44  19  36 NE13      29.81R
DMNS CITY PARK   N/A     47  14  26 W14G28    29.79R
AURORA         MOCLDY    46  28  50 E12       29.83R
FRONT RANGE AP FAIR      45  21  39 NE12G21   29.83R
ERIE MUNI ARPT FAIR      47  14  26 W7G13     29.83R
BOULDER MUN AP FAIR      46  19  34 N9        29.78R
CENTENNIAL     MOCLDY    46  18  32 N3        29.81R
BROOMFIELD     FAIR      46  14  27 SW32G43   29.80R
FORT COLLINS   FAIR      46  17  31 N25       29.80R
LONGMONT       FAIR      50  14  23 CALM      29.81R
$$

COZ041-046-047-076>085-087-088-211300-
...PIKES PEAK/PALMER DIVIDE AND SOUTHERN FOOTHILLS...

CITY           SKY/WX    TMP DP  RH WIND       PRES   REMARKS
COLO. SPRINGS  FAIR      49  24  37 NW21G28   29.80R
A. F. ACADEMY  FAIR      43  21  40 CALM      29.83R
SCHRIEVER AFB  FAIR      48  20  33 NW18G30   29.78R
CHEYENNE MTN   FAIR      45  30  54 CALM      29.75R
ELLICOTT         N/A    N/A N/A N/A NE3       29.79R
FALCON         FAIR      45  18  34 W28G33    29.81R
FORT CARSON    FAIR      47  28  47 N5        29.76R
LIMON          MOCLDY    40  32  73 N22G29    29.80R
MONUMENT HILL  FAIR      36  32  87 W6        29.85R
CANON CITY     FAIR      52  32  46 NW12      29.78R
WALSENBURG     FAIR      52  28  40 NW14G21   29.82R
TRINIDAD       FAIR      57  27  31 VRB3      29.78R
$$

COZ042>045-048>051-090-091-211300-
...NORTHEAST COLORADO...

CITY           SKY/WX    TMP DP  RH WIND       PRES   REMARKS
GREELEY ARPT   CLOUDY    46  17  31 N26G37    29.81R
AKRON          CLOUDY    43  28  55 NW41G52   29.83R
BURLINGTON     FAIR      51  20  29 N21G33    29.74R
WRAY           NOT AVBL
YUMA           CLOUDY    48   3  15 NW32G40   29.78R
STERLING       CLOUDY    50  19  29 NW24G30   29.80R
HOLYOKE        FAIR      54  23  30 NW17G37   29.75R
FORT MORGAN    CLOUDY    43  23  44 NW23G31   29.82R
$$

COZ086-089-092>099-211300-
...SOUTHEAST COLORADO...

CITY           SKY/WX    TMP DP  RH WIND       PRES   REMARKS
PUEBLO         FAIR      57  31  37 NW17      29.74R
LA JUNTA       MOCLDY    57  36  45 N14       29.73R
LAMAR          FAIR      57  36  45 NE10      29.68R
SPRINGFIELD      N/A     53  42  66 SW10      29.71R
$$



USA.gov is the U.S. government's official web portal to all federal, state and local government web resources and services.